Location: Passau
(48.5830°N, 13.4830°E)
Time: 19:33:38
(UTC+02:00)

S-56A Canister/Altair - Pass Details

Date: 25 May 2024
Orbit: 637 x 2489 km, 38.9° (Epoch: 15 June)

Event Time Altitude Azimuth Distance (km) Brightness Sun altitude
Rises 07:29:54 0° 241° (WSW) 5,960 11.5 20.0°
Reaches altitude 10° 07:34:18 10° 236° (WSW) 4,774 11.1 20.7°
Maximum altitude 07:46:08 45° 170° (S) 2,250 10.2 22.6°
Drops below altitude 10° 07:54:25 10° 102° (ESE) 3,383 12.4 24.0°
Sets 07:57:00 0° 95° (E) 4,129 12.6 24.4°
